{"data":{"norad_id":48655,"epoch":"2026-05-25T03:13:20.311104Z","epoch_age_seconds":77532,"freshness":"FRESH","line1":"1 48655U 21044T   26145.13426286  .00001578  00000+0  62585-4 0  9999","line2":"2 48655  53.1584 118.4426 0001333 108.0723 252.0424 15.31705589275538","mean_motion":15.31705589,"eccentricity":0.0001333,"inclination_deg":53.1584,"raan_deg":118.4426,"arg_perigee_deg":108.0723,"mean_anomaly_deg":252.0424,"bstar":6.2585e-5,"rev_number":27553,"period_min":94.012844918855,"perigee_km":469.81038167551,"apogee_km":471.63628784076,"semimajor_km":6848.8603347581,"source":"CELESTRAK","updated_at":"2026-05-25T13:38:16.756123Z"}}